Weather in Rechitsa

Russia / Oryol Oblast     52°23′19″N   37°23′21″E
temp.,
°C
wind,
m/s
gust,
m/s
humid.,
%
clouds,
%
prec.,
mm/h
press.,
hPa
HPBL,
m
18 april, sun
sun1800:00+5nne2390100 0.1 101869
03:00+4ese229350 0.3 101818
06:00+4ese1295100 0.6 101854
09:00+6ese228450 1.5 1018416
12:00+10ese226192 0.9 10181223
15:00+11se2259100 2.4 10181031
18:00+10ssw226490 1.8 1017579
21:00+8ese1175100 1.8 101811
19 april, mon
mon1900:00+7e2279100 0.0 101819
03:00+7ese3784100 0.1 1018255
06:00+6ene4892100 3.1 1017423
09:00+7ene2689100 3.1 1018403
12:00+10e3570100 0.3 10171012
15:00+11ene236789 1.9 1017827
18:00+6ne698996 0.3 1018502
21:00+4nne4694100 0.3 1018378
20 april, tue
tue2000:00+4ne3495100 0.0 1017329
03:00+4ne249597 0.0 1017184
06:00+5ene359294 0.0 1016149
09:00+8e6883100 0.0 1015485
12:00+8ene71192100 0.7 1013714
15:00+8ene81390100 1.3 1010810
18:00+7ene122093100 9.4 10031156
21:00+7e112093100 18.6 9991074
21 april, wed
wed2100:00+9se81594100 1.3 997603
03:00+9sse101589100 2.1 997989
06:00+4ssw81396100 0.6 1000784
09:00+4sw81291100 0.7 1004971
12:00+5wsw81384100 0.1 10071259
15:00+6wsw71279100 0.1 10111364
18:00+6sw61079100 0.0 1014763
21:00+6ssw4985100 0.0 1016349
22 april, thu
thu2200:00+5ssw4888100 0.0 1018240
03:00+5ssw3785100 0.0 1019194
06:00+5ssw259099 0.5 1020146
09:00+8ssw467658 0.6 1021512
12:00+12ssw575978 0.3 10211432
15:00+14ssw675396 0.8 10211771
18:00+13s59627 0.2 1021636
21:00+9s4108171 0.2 1022223